VK6HGR-1 Weather Reports


time (UTC)temp
C
wind
direction
speed
KPH
gust
KPH
rain 1hr
cm
rain 24hr
cm
rain mn
cm
humidity
%
barometer
mb
20260503180013 11 0.0 0.0 0.00 0.00 0.00 70 1024.0
20260503174513 12 0.0 0.0 0.00 0.00 0.00 69 1024.1
20260503173011 12 0.0 0.0 0.00 0.00 0.00 69 1024.0
20260503171510 12 0.0 0.0 0.00 0.00 0.00 69 1024.1
20260503081519 20 0.0 0.0 0.00 0.00 0.00 51 1021.7
20260503071512 20 0.0 0.0 0.00 0.00 0.00 52 1021.8
20260503054516 20 0.0 0.0 0.00 0.00 0.00 55 1022.1
20260503053010 19 0.0 0.0 0.00 0.00 0.00 57 1022.2
20260503051512 19 0.0 0.0 0.00 0.00 0.00 55 1022.4
20260503050013 18 0.0 0.0 0.00 0.00 0.00 55 1022.6
20260503044515 18 0.0 0.0 0.00 0.00 0.00 56 1022.9
20260503043011 18 0.0 0.0 0.00 0.00 0.00 57 1023.2
20260503041512 17 0.0 0.0 0.00 0.00 0.00 58 1023.5
20260503040012 17 0.0 0.0 0.00 0.00 0.00 59 1023.7
20260503034510 17 0.0 0.0 0.00 0.00 0.00 59 1024.0
20260503033013 16 0.0 0.0 0.00 0.00 0.00 60 1024.1
20260503031514 16 0.0 0.0 0.00 0.00 0.00 62 1024.2
20260503030012 16 0.0 0.0 0.00 0.00 0.00 63 1024.5
20260503024510 15 0.0 0.0 0.00 0.00 0.00 63 1024.6
20260503023010 15 0.0 0.0 0.00 0.00 0.00 65 1024.6
20260503021511 15 0.0 0.0 0.00 0.00 0.00 66 1024.6
20260503020012 14 0.0 0.0 0.00 0.00 0.00 66 1024.7
20260503014511 15 0.0 0.0 0.00 0.00 0.00 67 1024.5
20260503013012 14 0.0 0.0 0.00 0.00 0.00 68 1024.5
20260503011511 13 0.0 0.0 0.00 0.00 0.00 70 1024.5
20260503010012 13 0.0 0.0 0.00 0.00 0.00 72 1024.5
20260503004511 12 0.0 0.0 0.00 0.00 0.00 73 1024.5
20260503003013 11 0.0 0.0 0.00 0.00 0.00 74 1024.5
20260503001511 10 0.0 0.0 0.00 0.00 0.00 75 1024.4
20260503000011 9 0.0 0.0 0.00 0.00 0.00 73 1024.2
20260502234513 9 0.0 0.0 0.00 0.00 0.00 73 1024.1
20260502233011 9 0.0 0.0 0.00 0.00 0.00 73 1023.9
20260502231511 8 0.0 0.0 0.00 0.00 0.00 72 1023.7
20260502230010 8 0.0 0.0 0.00 0.00 0.00 72 1023.5
20260502224512 8 0.0 0.0 0.00 0.00 0.00 72 1023.3
20260502223011 8 0.0 0.0 0.00 0.00 0.00 72 1023.3
20260502221512 9 0.0 0.0 0.00 0.00 0.00 72 1023.1
20260502220012 9 0.0 0.0 0.00 0.00 0.00 72 1023.1
20260502214510 9 0.0 0.0 0.00 0.00 0.00 72 1023.0
20260502213013 9 0.0 0.0 0.00 0.00 0.00 71 1022.8
20260502211513 9 0.0 0.0 0.00 0.00 0.00 71 1022.7
20260502210010 9 0.0 0.0 0.00 0.00 0.00 71 1022.7
20260502204511 10 0.0 0.0 0.00 0.00 0.00 71 1022.6
20260502203012 10 0.0 0.0 0.00 0.00 0.00 71 1022.6
20260502201512 10 0.0 0.0 0.00 0.00 0.00 71 1022.6
20260502200010 10 0.0 0.0 0.00 0.00 0.00 71 1022.6
20260502194512 10 0.0 0.0 0.00 0.00 0.00 71 1022.6
20260502193013 10 0.0 0.0 0.00 0.00 0.00 71 1022.6
20260502191512 10 0.0 0.0 0.00 0.00 0.00 71 1022.6
20260502190010 10 0.0 0.0 0.00 0.00 0.00 71 1022.6
20260502184511 10 0.0 0.0 0.00 0.00 0.00 70 1022.5
20260502183011 10 0.0 0.0 0.00 0.00 0.00 70 1022.6
20260502181512 10 0.0 0.0 0.00 0.00 0.00 70 1022.6